This demonstration page uses our WeatherBlox Daily Observations layout. Learn more.

36.19886, -115.1175

Hourly Observations for July 3, 2018

Temp ( °F °C ) Dew Point ( °F °C ) Humidity (%) Winds ( mph kmh ) Pressure ( in mb ) Visibility ( mi km ) Precip ( " mm )
12:53 am 00:53 Clear 87 30.6 26 -3.3 11 11 ESE 3 6 29.71 1006 10 16.09344 0 0
1:53 am 01:53 Clear 85 29.4 28 -2.2 13 13 Calm 29.71 1006 10 16.09344 0 0
2:53 am 02:53 Clear 83 28.3 30 -1.1 15 15 Calm 29.71 1006 10 16.09344 0 0
3:53 am 03:53 Clear 80 26.7 30 -1.1 16 16 NNW 3 6 29.71 1006 10 16.09344 0 0
4:53 am 04:53 Clear 78 25.6 32 0 19 19 Calm 29.74 1007 10 16.09344 0 0
5:53 am 05:53 Sunny 79 26.1 26 -3.3 14 14 E 8 13 29.74 1007 10 16.09344 0 0
6:53 am 06:53 Sunny 83 28.3 28 -2.2 13 13 ENE 7 11 29.77 1008 10 16.09344 0 0
7:53 am 07:53 Sunny 87 30.6 29 -1.7 12 12 ENE 7 11 29.77 1008 10 16.09344 0 0
8:53 am 08:53 Sunny 91 32.8 34 1.1 13 13 ESE 13 20 29.77 1008 10 16.09344 0 0
9:53 am 09:53 Sunny 94 34.4 37 2.8 14 14 SE 12 19 29.77 1008 10 16.09344 0 0
10:53 am 10:53 Sunny 99 37.2 36 2.2 11 11 S 18 30 29.77 1008 10 16.09344 0 0
11:53 am 11:53 Sunny 100 37.8 27 -2.8 7 7 SSW 9 15 29.74 1007 10 16.09344 0 0
12:53 pm 12:53 Sunny 101 38.3 26 -3.3 7 7 SW 9 15 29.74 1007 10 16.09344 0 0
1:53 pm 13:53 Sunny 104 40 26 -3.3 6 6 S 13 20 29.71 1006 10 16.09344 0 0
2:53 pm 14:53 Sunny 103 39.4 27 -2.8 7 7 SSW 9 15 29.68 1005 10 16.09344 0 0
3:53 pm 15:53 Sunny 105 40.6 24 -4.4 6 6 undefined N/A 29.68 1005 10 16.09344 0 0
4:53 pm 16:53 Sunny 104 40 23 -5 6 6 SSW 16 26 29.68 1005 10 16.09344 0 0
5:53 pm 17:53 Sunny 103 39.4 17 -8.3 4 4 WSW 16 26 29.65 1004 10 16.09344 0 0
6:53 pm 18:53 Sunny 102 38.9 17 -8.3 5 5 WSW 12 19 29.68 1005 10 16.09344 0 0
7:53 pm 19:53 Sunny 99 37.2 17 -8.3 5 5 SSW 14 22 29.68 1005 10 16.09344 0 0
8:53 pm 20:53 Clear 96 35.6 16 -8.9 5 5 SSW 12 19 29.71 1006 10 16.09344 0 0
9:53 pm 21:53 Clear 94 34.4 16 -8.9 6 6 S 14 22 29.74 1007 10 16.09344 0 0
10:53 pm 22:53 Clear 92 33.3 15 -9.4 6 6 SSW 9 15 29.74 1007 10 16.09344 0 0
11:53 pm 23:53 Clear 89 31.7 12 -11.1 5 5 SSE 8 13 29.77 1008 10 16.09344 0 0

Powered by AerisWeather